DL1MMS-10 Weather Reports


Display with metric or nautical units.
time (UTC)temp
F
wind
direction
speed
MPH
gust
MPH
rain 1hr
in
rain 24hr
in
rain mn
in
humidity
%
barometer
mb
20260831154012 72 0 0.0 0.0 0.00 0.00 0.00 52 1018.7
20260831153512 71 0 0.0 0.0 0.00 0.00 0.00 54 1018.8
20260831153012 71 0 0.0 0.0 0.00 0.00 0.00 55 1018.9
20260831152512 70 0 0.0 0.0 0.00 0.00 0.00 55 1018.8
20260831152011 71 0 0.0 0.0 0.00 0.00 0.00 54 1018.8
20260831151511 71 0 0.0 0.0 0.00 0.00 0.00 53 1018.9
20260831151011 71 0 0.0 0.0 0.00 0.00 0.00 52 1019.0
20260831150510 71 0 0.0 0.0 0.00 0.00 0.00 52 1018.8
20260831150010 71 0 0.0 0.0 0.00 0.00 0.00 51 1018.9
20260831145510 71 0 0.0 0.0 0.00 0.00 0.00 50 1018.9
20260831145010 72 0 0.0 0.0 0.00 0.00 0.00 50 1018.9
20260831144509 72 0 0.0 0.0 0.00 0.00 0.00 50 1019.0
20260831144009 72 0 0.0 0.0 0.00 0.00 0.00 49 1019.1
20260831143509 73 0 0.0 0.0 0.00 0.00 0.00 48 1019.1
20260831143008 74 0 0.0 0.0 0.00 0.00 0.00 46 1019.1
20260831142508 75 0 0.0 0.0 0.00 0.00 0.00 44 1019.1
20260831142008 78 0 0.0 0.0 0.00 0.00 0.00 43 1019.0
20260831141508 79 0 0.0 0.0 0.00 0.00 0.00 43 1018.8
20260831141007 79 0 0.0 0.0 0.00 0.00 0.00 43 1019.0
20260831140507 78 0 0.0 0.0 0.00 0.00 0.00 43 1018.8
20260831140007 76 0 0.0 0.0 0.00 0.00 0.00 46 1019.1
20260831135506 75 0 0.0 0.0 0.00 0.00 0.00 46 1019.0
20260831135006 75 0 0.0 0.0 0.00 0.00 0.00 46 1019.0
20260831134506 76 0 0.0 0.0 0.00 0.00 0.00 45 1018.9
20260831134006 77 0 0.0 0.0 0.00 0.00 0.00 44 1018.9
20260831133505 80 0 0.0 0.0 0.00 0.00 0.00 41 1018.9
20260831133005 83 0 0.0 0.0 0.00 0.00 0.00 39 1019.0
20260831132505 84 0 0.0 0.0 0.00 0.00 0.00 40 1019.0
20260831132004 83 0 0.0 0.0 0.00 0.00 0.00 41 1018.9
20260831131504 81 0 0.0 0.0 0.00 0.00 0.00 44 1019.1
20260831131004 78 0 0.0 0.0 0.00 0.00 0.00 44 1019.0
20260831130504 79 0 0.0 0.0 0.00 0.00 0.00 43 1019.0
20260831130004 81 0 0.0 0.0 0.00 0.00 0.00 42 1019.0
20260831125503 84 0 0.0 0.0 0.00 0.00 0.00 39 1019.0
20260831125003 85 0 0.0 0.0 0.00 0.00 0.00 39 1019.0
20260831124502 85 0 0.0 0.0 0.00 0.00 0.00 39 1019.0
20260831124002 84 0 0.0 0.0 0.00 0.00 0.00 43 1019.0
20260831123502 83 0 0.0 0.0 0.00 0.00 0.00 43 1018.9
20260831123002 83 0 0.0 0.0 0.00 0.00 0.00 43 1019.0
20260831122501 83 0 0.0 0.0 0.00 0.00 0.00 44 1019.1
20260831122001 83 0 0.0 0.0 0.00 0.00 0.00 44 1019.0
20260831121501 83 0 0.0 0.0 0.00 0.00 0.00 45 1019.0
20260831121000 80 0 0.0 0.0 0.00 0.00 0.00 47 1019.0
20260831120500 82 0 0.0 0.0 0.00 0.00 0.00 46 1019.1
20260831120000 83 0 0.0 0.0 0.00 0.00 0.00 45 1019.1
20260831115500 82 0 0.0 0.0 0.00 0.00 0.00 47 1019.1
20260831114959 80 0 0.0 0.0 0.00 0.00 0.00 50 1019.1
20260831114459 77 0 0.0 0.0 0.00 0.00 0.00 53 1019.1
20260831113959 76 0 0.0 0.0 0.00 0.00 0.00 56 1019.2
20260831113458 73 0 0.0 0.0 0.00 0.00 0.00 57 1019.3
20260831112958 73 0 0.0 0.0 0.00 0.00 0.00 57 1019.2
20260831112458 74 0 0.0 0.0 0.00 0.00 0.00 55 1019.3
20260831111958 75 0 0.0 0.0 0.00 0.00 0.00 53 1019.3
20260831111457 76 0 0.0 0.0 0.00 0.00 0.00 52 1019.4
20260831110957 79 0 0.0 0.0 0.00 0.00 0.00 49 1019.3
20260831110457 82 0 0.0 0.0 0.00 0.00 0.00 48 1019.3
20260831105957 79 0 0.0 0.0 0.00 0.00 0.00 51 1019.2
20260831105456 77 0 0.0 0.0 0.00 0.00 0.00 52 1019.2
20260831104956 78 0 0.0 0.0 0.00 0.00 0.00 53 1019.2
20260831104456 79 0 0.0 0.0 0.00 0.00 0.00 52 1019.1
20260831103955 76 0 0.0 0.0 0.00 0.00 0.00 57 1019.1
20260831103455 74 0 0.0 0.0 0.00 0.00 0.00 57 1019.3
20260831102955 75 0 0.0 0.0 0.00 0.00 0.00 57 1019.3
20260831102455 75 0 0.0 0.0 0.00 0.00 0.00 57 1019.3
20260831101954 75 0 0.0 0.0 0.00 0.00 0.00 57 1019.4
20260831101454 75 0 0.0 0.0 0.00 0.00 0.00 56 1019.3
20260831100954 78 0 0.0 0.0 0.00 0.00 0.00 55 1019.2
20260831100453 75 0 0.0 0.0 0.00 0.00 0.00 59 1019.2
20260831095953 70 0 0.0 0.0 0.00 0.00 0.00 64 1019.4
20260831095453 69 0 0.0 0.0 0.00 0.00 0.00 66 1019.5
20260831094953 69 0 0.0 0.0 0.00 0.00 0.00 67 1019.3
20260831094452 69 0 0.0 0.0 0.00 0.00 0.00 67 1019.4
20260831093952 69 0 0.0 0.0 0.00 0.00 0.00 67 1019.4
20260831093452 68 0 0.0 0.0 0.00 0.00 0.00 67 1019.5
20260831092951 68 0 0.0 0.0 0.00 0.00 0.00 68 1019.4
20260831092451 68 0 0.0 0.0 0.00 0.00 0.00 69 1019.4
20260831091951 68 0 0.0 0.0 0.00 0.00 0.00 69 1019.5
20260831091451 68 0 0.0 0.0 0.00 0.00 0.00 69 1019.5
20260831090950 68 0 0.0 0.0 0.00 0.00 0.00 68 1019.5
20260831090450 68 0 0.0 0.0 0.00 0.00 0.00 68 1019.4
20260831085950 68 0 0.0 0.0 0.00 0.00 0.00 69 1019.4
20260831085449 68 0 0.0 0.0 0.00 0.00 0.00 70 1019.4
20260831084949 68 0 0.0 0.0 0.00 0.00 0.00 71 1019.4
20260831084449 67 0 0.0 0.0 0.00 0.00 0.00 71 1019.3
20260831083949 67 0 0.0 0.0 0.00 0.00 0.00 72 1019.2
20260831083448 67 0 0.0 0.0 0.00 0.00 0.00 71 1019.2
20260831082948 67 0 0.0 0.0 0.00 0.00 0.00 72 1019.2
20260831082448 67 0 0.0 0.0 0.00 0.00 0.00 71 1019.1
20260831081947 67 0 0.0 0.0 0.00 0.00 0.00 72 1019.0
20260831081447 66 0 0.0 0.0 0.00 0.00 0.00 72 1019.1
20260831080947 66 0 0.0 0.0 0.00 0.00 0.00 72 1019.0
20260831080447 66 0 0.0 0.0 0.00 0.00 0.00 72 1019.0
20260831075946 66 0 0.0 0.0 0.00 0.00 0.00 72 1018.9
20260831075446 66 0 0.0 0.0 0.00 0.00 0.00 72 1018.7
20260831074946 66 0 0.0 0.0 0.00 0.00 0.00 74 1018.7
20260831074445 66 0 0.0 0.0 0.00 0.00 0.00 74 1018.8
20260831073945 66 0 0.0 0.0 0.00 0.00 0.00 75 1018.8
20260831073445 66 0 0.0 0.0 0.00 0.00 0.00 75 1018.6
20260831072945 66 0 0.0 0.0 0.00 0.00 0.00 76 1018.6
20260831072444 65 0 0.0 0.0 0.00 0.00 0.00 77 1018.6
20260831071944 65 0 0.0 0.0 0.00 0.00 0.00 79 1018.6
20260831071444 64 0 0.0 0.0 0.00 0.00 0.00 79 1018.6
20260831070943 64 0 0.0 0.0 0.00 0.00 0.00 79 1018.5
20260831070443 64 0 0.0 0.0 0.00 0.00 0.00 78 1018.4
20260831065943 65 0 0.0 0.0 0.00 0.00 0.00 78 1018.4
20260831065443 65 0 0.0 0.0 0.00 0.00 0.00 78 1018.5
20260831064942 65 0 0.0 0.0 0.00 0.00 0.00 79 1018.4
20260831064442 64 0 0.0 0.0 0.00 0.00 0.00 79 1018.4
20260831063942 64 0 0.0 0.0 0.00 0.00 0.00 79 1018.3
20260831063441 64 0 0.0 0.0 0.00 0.00 0.00 80 1018.3
20260831062941 64 0 0.0 0.0 0.00 0.00 0.00 81 1018.2
20260831062441 63 0 0.0 0.0 0.00 0.00 0.00 81 1018.2
20260831061941 63 0 0.0 0.0 0.00 0.00 0.00 81 1018.1
20260831061440 63 0 0.0 0.0 0.00 0.00 0.00 82 1018.1
20260831060940 62 0 0.0 0.0 0.00 0.00 0.00 82 1018.1
20260831060440 62 0 0.0 0.0 0.00 0.00 0.00 84 1018.1
20260831055940 62 0 0.0 0.0 0.00 0.00 0.00 84 1018.1
20260831055439 61 0 0.0 0.0 0.00 0.00 0.00 100 1018.0
20260831054939 61 0 0.0 0.0 0.00 0.00 0.00 85 1018.0
20260831054439 60 0 0.0 0.0 0.00 0.00 0.00 85 1018.1
20260831053938 60 0 0.0 0.0 0.00 0.00 0.00 86 1018.1
20260831053438 60 0 0.0 0.0 0.00 0.00 0.00 86 1018.0
20260831052938 59 0 0.0 0.0 0.00 0.00 0.00 86 1018.0
20260831052437 59 0 0.0 0.0 0.00 0.00 0.00 87 1018.0
20260831051937 59 0 0.0 0.0 0.00 0.00 0.00 87 1018.1
20260831051437 59 0 0.0 0.0 0.00 0.00 0.00 87 1018.1
20260831050937 59 0 0.0 0.0 0.00 0.00 0.00 87 1018.2
20260831050436 58 0 0.0 0.0 0.00 0.00 0.00 87 1018.1
20260831045936 58 0 0.0 0.0 0.00 0.00 0.00 87 1018.2
20260831045436 58 0 0.0 0.0 0.00 0.00 0.00 87 1018.1
20260831044936 58 0 0.0 0.0 0.00 0.00 0.00 86 1018.1
20260831044435 58 0 0.0 0.0 0.00 0.00 0.00 86 1018.0
20260831043935 59 0 0.0 0.0 0.00 0.00 0.00 86 1017.9
20260831043435 59 0 0.0 0.0 0.00 0.00 0.00 86 1017.9
20260831042934 59 0 0.0 0.0 0.00 0.00 0.00 86 1018.0
20260831042434 59 0 0.0 0.0 0.00 0.00 0.00 86 1017.9
20260831041934 59 0 0.0 0.0 0.00 0.00 0.00 86 1017.9
20260831041434 59 0 0.0 0.0 0.00 0.00 0.00 86 1017.9
20260831040933 60 0 0.0 0.0 0.00 0.00 0.00 86 1017.9
20260831040433 60 0 0.0 0.0 0.00 0.00 0.00 86 1017.9
20260831035933 60 0 0.0 0.0 0.00 0.00 0.00 87 1018.0
20260831035432 60 0 0.0 0.0 0.00 0.00 0.00 87 1017.9
20260831034932 60 0 0.0 0.0 0.00 0.00 0.00 87 1017.9
20260831034432 60 0 0.0 0.0 0.00 0.00 0.00 87 1017.8
20260831033932 60 0 0.0 0.0 0.00 0.00 0.00 87 1017.9
20260831033431 60 0 0.0 0.0 0.00 0.00 0.00 88 1017.8
20260831032931 59 0 0.0 0.0 0.00 0.00 0.00 88 1017.8
20260831032431 59 0 0.0 0.0 0.00 0.00 0.00 88 1017.9
20260831031930 59 0 0.0 0.0 0.00 0.00 0.00 88 1017.8
20260831031430 59 0 0.0 0.0 0.00 0.00 0.00 88 1017.8
20260831030930 59 0 0.0 0.0 0.00 0.00 0.00 87 1018.0
20260831030430 58 0 0.0 0.0 0.00 0.00 0.00 87 1018.0
20260831025929 58 0 0.0 0.0 0.00 0.00 0.00 87 1018.1
20260831025429 59 0 0.0 0.0 0.00 0.00 0.00 87 1018.3
20260831024929 59 0 0.0 0.0 0.00 0.00 0.00 86 1018.3
20260831024428 59 0 0.0 0.0 0.00 0.00 0.00 86 1018.1
20260831023928 59 0 0.0 0.0 0.00 0.00 0.00 85 1018.2
20260831023428 60 0 0.0 0.0 0.00 0.00 0.00 85 1018.2
20260831022928 60 0 0.0 0.0 0.00 0.00 0.00 85 1018.4
20260831022427 61 0 0.0 0.0 0.00 0.00 0.00 84 1018.5
20260831021927 61 0 0.0 0.0 0.00 0.00 0.00 83 1018.4
20260831021427 63 0 0.0 0.0 0.00 0.00 0.00 81 1018.5
20260831020926 63 0 0.0 0.0 0.00 0.00 0.00 80 1018.3
20260831020426 61 0 0.0 0.0 0.00 0.00 0.00 82 1018.0
20260831015926 61 0 0.0 0.0 0.00 0.00 0.00 84 1017.1
20260831015426 61 0 0.0 0.0 0.00 0.00 0.00 84 1015.7
20260831014925 61 0 0.0 0.0 0.00 0.00 0.00 83 1015.7
20260831014425 61 0 0.0 0.0 0.00 0.00 0.00 83 1015.7
20260831013925 61 0 0.0 0.0 0.00 0.00 0.00 84 1015.6
20260831013424 61 0 0.0 0.0 0.00 0.00 0.00 84 1015.4
20260831012924 61 0 0.0 0.0 0.00 0.00 0.00 84 1015.4
20260831012424 61 0 0.0 0.0 0.00 0.00 0.00 84 1015.5
20260831011924 61 0 0.0 0.0 0.00 0.00 0.00 84 1015.4
20260831011423 61 0 0.0 0.0 0.00 0.00 0.00 84 1015.4
20260831010923 61 0 0.0 0.0 0.00 0.00 0.00 85 1015.3
20260831010423 61 0 0.0 0.0 0.00 0.00 0.00 85 1015.5
20260831005923 61 0 0.0 0.0 0.00 0.00 0.00 85 1015.4
20260831005422 61 0 0.0 0.0 0.00 0.00 0.00 85 1015.5
20260831004922 61 0 0.0 0.0 0.00 0.00 0.00 85 1015.5
20260831004422 61 0 0.0 0.0 0.00 0.00 0.00 85 1015.5
20260831003921 61 0 0.0 0.0 0.00 0.00 0.00 85 1015.3
20260831003421 61 0 0.0 0.0 0.00 0.00 0.00 85 1015.6
20260831002921 61 0 0.0 0.0 0.00 0.00 0.00 85 1016.1
20260831002421 61 0 0.0 0.0 0.00 0.00 0.00 84 1015.8
20260831001920 61 0 0.0 0.0 0.00 0.00 0.00 83 1016.4
20260831001420 61 0 0.0 0.0 0.00 0.00 0.00 83 1016.3
20260831000920 61 0 0.0 0.0 0.00 0.00 0.00 83 1016.3
20260831000419 61 0 0.0 0.0 0.00 0.00 0.00 83 1016.2
20260830235919 61 0 0.0 0.0 0.00 0.00 0.00 83 1016.1
20260830235419 61 0 0.0 0.0 0.00 0.00 0.00 83 1016.1
20260830234919 61 0 0.0 0.0 0.00 0.00 0.00 83 1015.9
20260830234418 61 0 0.0 0.0 0.00 0.00 0.00 83 1015.9
20260830233918 61 0 0.0 0.0 0.00 0.00 0.00 83 1016.0
20260830233418 61 0 0.0 0.0 0.00 0.00 0.00 82 1016.1
20260830232917 62 0 0.0 0.0 0.00 0.00 0.00 82 1016.0
20260830232417 62 0 0.0 0.0 0.00 0.00 0.00 82 1016.1
20260830231917 62 0 0.0 0.0 0.00 0.00 0.00 82 1016.1
20260830231417 62 0 0.0 0.0 0.00 0.00 0.00 82 1016.3
20260830230916 62 0 0.0 0.0 0.00 0.00 0.00 82 1016.3
20260830230416 62 0 0.0 0.0 0.00 0.00 0.00 82 1016.4
20260830225916 62 0 0.0 0.0 0.00 0.00 0.00 82 1016.5
20260830225415 63 0 0.0 0.0 0.00 0.00 0.00 82 1016.5
20260830224915 63 0 0.0 0.0 0.00 0.00 0.00 81 1016.6
20260830224415 63 0 0.0 0.0 0.00 0.00 0.00 81 1016.5
20260830223915 63 0 0.0 0.0 0.00 0.00 0.00 81 1016.6
20260830223414 63 0 0.0 0.0 0.00 0.00 0.00 81 1016.6
20260830222914 63 0 0.0 0.0 0.00 0.00 0.00 81 1016.8
20260830222414 63 0 0.0 0.0 0.00 0.00 0.00 81 1016.9
20260830221913 63 0 0.0 0.0 0.00 0.00 0.00 81 1016.7
20260830221413 63 0 0.0 0.0 0.00 0.00 0.00 81 1016.7
20260830220913 63 0 0.0 0.0 0.00 0.00 0.00 81 1016.7
20260830220413 63 0 0.0 0.0 0.00 0.00 0.00 81 1016.8
20260830215912 63 0 0.0 0.0 0.00 0.00 0.00 81 1016.8
20260830215412 63 0 0.0 0.0 0.00 0.00 0.00 81 1016.7
20260830214912 62 0 0.0 0.0 0.00 0.00 0.00 80 1016.8
20260830214411 62 0 0.0 0.0 0.00 0.00 0.00 80 1016.9
20260830213911 62 0 0.0 0.0 0.00 0.00 0.00 80 1017.0
20260830213411 62 0 0.0 0.0 0.00 0.00 0.00 80 1016.9
20260830212911 62 0 0.0 0.0 0.00 0.00 0.00 80 1017.1
20260830212410 62 0 0.0 0.0 0.00 0.00 0.00 80 1017.3
20260830211910 62 0 0.0 0.0 0.00 0.00 0.00 80 1017.3
20260830211410 62 0 0.0 0.0 0.00 0.00 0.00 80 1017.2
20260830210910 62 0 0.0 0.0 0.00 0.00 0.00 80 1017.2
20260830210409 62 0 0.0 0.0 0.00 0.00 0.00 79 1017.2
20260830205909 62 0 0.0 0.0 0.00 0.00 0.00 79 1017.1
20260830205409 62 0 0.0 0.0 0.00 0.00 0.00 78 1017.2
20260830204908 62 0 0.0 0.0 0.00 0.00 0.00 78 1017.0
20260830204408 63 0 0.0 0.0 0.00 0.00 0.00 78 1017.1
20260830203908 63 0 0.0 0.0 0.00 0.00 0.00 77 1017.0
20260830203407 63 0 0.0 0.0 0.00 0.00 0.00 77 1016.9
20260830202907 63 0 0.0 0.0 0.00 0.00 0.00 77 1017.0
20260830202407 63 0 0.0 0.0 0.00 0.00 0.00 77 1017.2
20260830201907 63 0 0.0 0.0 0.00 0.00 0.00 77 1017.1
20260830201406 63 0 0.0 0.0 0.00 0.00 0.00 77 1017.2
20260830200906 64 0 0.0 0.0 0.00 0.00 0.00 77 1017.1
20260830200406 64 0 0.0 0.0 0.00 0.00 0.00 77 1017.1
20260830195905 64 0 0.0 0.0 0.00 0.00 0.00 76 1017.1
20260830195405 64 0 0.0 0.0 0.00 0.00 0.00 75 1017.2
20260830194905 64 0 0.0 0.0 0.00 0.00 0.00 75 1017.3
20260830194405 65 0 0.0 0.0 0.00 0.00 0.00 74 1017.3
20260830193904 65 0 0.0 0.0 0.00 0.00 0.00 74 1017.3
20260830193404 65 0 0.0 0.0 0.00 0.00 0.00 74 1017.3
20260830192904 65 0 0.0 0.0 0.00 0.00 0.00 74 1017.3
20260830192403 65 0 0.0 0.0 0.00 0.00 0.00 74 1017.4
20260830191903 66 0 0.0 0.0 0.00 0.00 0.00 72 1017.3
20260830191403 66 0 0.0 0.0 0.00 0.00 0.00 71 1017.2
20260830190903 66 0 0.0 0.0 0.00 0.00 0.00 71 1017.4
20260830190402 66 0 0.0 0.0 0.00 0.00 0.00 70 1017.3
20260830185902 67 0 0.0 0.0 0.00 0.00 0.00 69 1017.1
20260830185402 67 0 0.0 0.0 0.00 0.00 0.00 68 1017.3
20260830184902 68 0 0.0 0.0 0.00 0.00 0.00 68 1017.3
20260830184401 68 0 0.0 0.0 0.00 0.00 0.00 67 1017.1
20260830183901 68 0 0.0 0.0 0.00 0.00 0.00 65 1017.3
20260830183401 69 0 0.0 0.0 0.00 0.00 0.00 65 1017.1
20260830182900 69 0 0.0 0.0 0.00 0.00 0.00 64 1017.1
20260830182400 70 0 0.0 0.0 0.00 0.00 0.00 63 1017.2
20260830181900 70 0 0.0 0.0 0.00 0.00 0.00 62 1017.1
20260830181400 71 0 0.0 0.0 0.00 0.00 0.00 61 1016.9
20260830180859 72 0 0.0 0.0 0.00 0.00 0.00 59 1017.0
20260830180359 72 0 0.0 0.0 0.00 0.00 0.00 58 1017.1
20260830175859 73 0 0.0 0.0 0.00 0.00 0.00 57 1017.0
20260830175358 73 0 0.0 0.0 0.00 0.00 0.00 57 1017.1
20260830174858 74 0 0.0 0.0 0.00 0.00 0.00 56 1017.0
20260830174358 74 0 0.0 0.0 0.00 0.00 0.00 55 1017.0
20260830173858 75 0 0.0 0.0 0.00 0.00 0.00 55 1016.9
20260830173357 75 0 0.0 0.0 0.00 0.00 0.00 54 1016.8
20260830172857 76 0 0.0 0.0 0.00 0.00 0.00 54 1016.9
20260830172357 76 0 0.0 0.0 0.00 0.00 0.00 53 1016.9
20260830171856 77 0 0.0 0.0 0.00 0.00 0.00 52 1016.9
20260830171356 77 0 0.0 0.0 0.00 0.00 0.00 51 1016.9
20260830170856 78 0 0.0 0.0 0.00 0.00 0.00 51 1016.9
20260830170356 78 0 0.0 0.0 0.00 0.00 0.00 50 1017.0
20260830165855 78 0 0.0 0.0 0.00 0.00 0.00 50 1017.0
20260830165355 78 0 0.0 0.0 0.00 0.00 0.00 50 1017.0
20260830164855 79 0 0.0 0.0 0.00 0.00 0.00 50 1016.9
20260830164354 79 0 0.0 0.0 0.00 0.00 0.00 50 1017.0
20260830163854 79 0 0.0 0.0 0.00 0.00 0.00 50 1016.9
20260830163356 79 0 0.0 0.0 0.00 0.00 0.00 49 1016.9
20260830162854 79 0 0.0 0.0 0.00 0.00 0.00 48 1016.9
20260830162353 80 0 0.0 0.0 0.00 0.00 0.00 48 1016.9
20260830161853 80 0 0.0 0.0 0.00 0.00 0.00 48 1016.8
20260830161353 80 0 0.0 0.0 0.00 0.00 0.00 48 1016.8
20260830160852 80 0 0.0 0.0 0.00 0.00 0.00 49 1016.8
20260830160352 80 0 0.0 0.0 0.00 0.00 0.00 49 1016.9
20260830155852 80 0 0.0 0.0 0.00 0.00 0.00 49 1017.1
20260830155352 80 0 0.0 0.0 0.00 0.00 0.00 48 1017.0
20260830154851 80 0 0.0 0.0 0.00 0.00 0.00 48 1017.0
20260830154351 80 0 0.0 0.0 0.00 0.00 0.00 48 1016.9